Year,Month,Day,Hour,Minute,Value (Times are PST for windgust in km/hr)
2015,07,07,00,00,3.20
2015,07,07,00,01,4.80
2015,07,07,00,02,4.80
2015,07,07,00,03,3.20
2015,07,07,00,04,3.20
2015,07,07,00,05,3.20
2015,07,07,00,06,3.20
2015,07,07,00,07,3.20
2015,07,07,00,08,1.60
2015,07,07,00,09,1.60
2015,07,07,00,10,1.60
2015,07,07,00,11,1.60
2015,07,07,00,12,3.20
2015,07,07,00,13,3.20
2015,07,07,00,14,1.60
2015,07,07,00,15,3.20
2015,07,07,00,16,3.20
2015,07,07,00,17,3.20
2015,07,07,00,18,3.20
2015,07,07,00,19,4.80
2015,07,07,00,20,3.20
2015,07,07,00,21,4.80
2015,07,07,00,22,4.80
2015,07,07,00,23,4.80
2015,07,07,00,24,4.80
2015,07,07,00,25,4.80
2015,07,07,00,26,4.80
2015,07,07,00,27,8.10
2015,07,07,00,28,9.60
2015,07,07,00,29,6.40
2015,07,07,00,30,4.80
2015,07,07,00,31,4.80
2015,07,07,00,32,4.80
2015,07,07,00,33,9.60
2015,07,07,00,34,9.60
2015,07,07,00,35,11.30
2015,07,07,00,36,6.40
2015,07,07,00,37,6.40
2015,07,07,00,38,8.10
2015,07,07,00,39,8.10
2015,07,07,00,40,11.30
2015,07,07,00,41,11.30
2015,07,07,00,42,1.60
2015,07,07,00,43,3.20
2015,07,07,00,44,3.20
2015,07,07,00,45,3.20
2015,07,07,00,46,3.20
2015,07,07,00,47,3.20
2015,07,07,00,48,3.20
2015,07,07,00,49,3.20
2015,07,07,00,50,3.20
2015,07,07,00,51,4.80
2015,07,07,00,52,6.40
2015,07,07,00,53,3.20
2015,07,07,00,54,4.80
2015,07,07,00,55,3.20
2015,07,07,00,56,4.80
2015,07,07,00,57,4.80
2015,07,07,00,58,3.20
2015,07,07,00,59,3.20
2015,07,07,01,00,3.20
2015,07,07,01,01,3.20
2015,07,07,01,02,3.20
2015,07,07,01,03,3.20
2015,07,07,01,04,1.60
2015,07,07,01,05,3.20
2015,07,07,01,06,1.60
2015,07,07,01,07,3.20
2015,07,07,01,08,3.20
2015,07,07,01,09,4.80
2015,07,07,01,10,3.20
2015,07,07,01,11,6.40
2015,07,07,01,12,6.40
2015,07,07,01,13,4.80
2015,07,07,01,14,4.80
2015,07,07,01,15,9.60
2015,07,07,01,16,3.20
2015,07,07,01,17,1.60
2015,07,07,01,18,3.20
2015,07,07,01,19,3.20
2015,07,07,01,20,3.20
2015,07,07,01,21,6.40
2015,07,07,01,22,6.40
2015,07,07,01,23,6.40
2015,07,07,01,24,9.60
2015,07,07,01,25,9.60
2015,07,07,01,26,9.60
2015,07,07,01,27,11.30
2015,07,07,01,28,6.40
2015,07,07,01,29,3.20
2015,07,07,01,30,3.20
2015,07,07,01,31,8.10
2015,07,07,01,32,6.40
2015,07,07,01,33,6.40
2015,07,07,01,34,6.40
2015,07,07,01,35,3.20
2015,07,07,01,36,4.80
2015,07,07,01,37,6.40
2015,07,07,01,38,4.80
2015,07,07,01,39,4.80
2015,07,07,01,40,4.80
2015,07,07,01,41,4.80
2015,07,07,01,42,4.80
2015,07,07,01,43,3.20
2015,07,07,01,44,3.20
2015,07,07,01,45,3.20
2015,07,07,01,46,3.20
2015,07,07,01,47,3.20
2015,07,07,01,48,3.20
2015,07,07,01,49,3.20
2015,07,07,01,50,1.60
2015,07,07,01,51,1.60
2015,07,07,01,52,1.60
2015,07,07,01,53,3.20
2015,07,07,01,54,3.20
2015,07,07,01,55,3.20
2015,07,07,01,56,3.20
2015,07,07,01,57,3.20
2015,07,07,01,58,3.20
2015,07,07,01,59,3.20
2015,07,07,02,00,4.80
2015,07,07,02,01,3.20
2015,07,07,02,02,4.80
2015,07,07,02,03,4.80
2015,07,07,02,04,4.80
2015,07,07,02,05,6.40
2015,07,07,02,06,4.80
2015,07,07,02,07,4.80
2015,07,07,02,08,4.80
2015,07,07,02,09,6.40
2015,07,07,02,10,9.60
2015,07,07,02,11,11.30
2015,07,07,02,12,6.40
2015,07,07,02,13,9.60
2015,07,07,02,14,8.10
2015,07,07,02,15,8.10
2015,07,07,02,16,9.60
2015,07,07,02,17,4.80
2015,07,07,02,18,4.80
2015,07,07,02,19,6.40
2015,07,07,02,20,3.20
2015,07,07,02,21,3.20
2015,07,07,02,22,1.60
2015,07,07,02,23,1.60
2015,07,07,02,24,3.20
2015,07,07,02,25,3.20
2015,07,07,02,26,3.20
2015,07,07,02,27,3.20
2015,07,07,02,28,3.20
2015,07,07,02,29,3.20
2015,07,07,02,30,3.20
2015,07,07,02,31,3.20
2015,07,07,02,32,1.60
2015,07,07,02,33,1.60
2015,07,07,02,34,3.20
2015,07,07,02,35,3.20
2015,07,07,02,36,1.60
2015,07,07,02,37,3.20
2015,07,07,02,38,3.20
2015,07,07,02,39,3.20
2015,07,07,02,40,3.20
2015,07,07,02,41,3.20
2015,07,07,02,42,3.20
2015,07,07,02,43,3.20
2015,07,07,02,44,3.20
2015,07,07,02,45,3.20
2015,07,07,02,46,3.20
2015,07,07,02,47,3.20
2015,07,07,02,48,4.80
2015,07,07,02,49,3.20
2015,07,07,02,50,3.20
2015,07,07,02,51,3.20
2015,07,07,02,52,1.60
2015,07,07,02,53,1.60
2015,07,07,02,55,1.60
2015,07,07,02,56,1.60
2015,07,07,03,14,3.20
2015,07,07,03,15,3.20
2015,07,07,03,16,3.20
2015,07,07,03,17,3.20
2015,07,07,03,18,1.60
2015,07,07,03,22,3.20
2015,07,07,03,23,3.20
2015,07,07,03,24,3.20
2015,07,07,03,25,3.20
2015,07,07,03,26,3.20
2015,07,07,03,27,3.20
2015,07,07,03,28,3.20
2015,07,07,03,29,3.20
2015,07,07,03,30,3.20
2015,07,07,03,31,1.60
2015,07,07,03,47,3.20
2015,07,07,03,48,3.20
2015,07,07,03,49,4.80
2015,07,07,03,50,3.20
2015,07,07,03,51,3.20
2015,07,07,03,52,3.20
2015,07,07,03,53,4.80
2015,07,07,03,54,4.80
2015,07,07,03,55,3.20
2015,07,07,03,56,3.20
2015,07,07,03,57,3.20
2015,07,07,03,58,3.20
2015,07,07,03,59,3.20
2015,07,07,04,00,4.80
2015,07,07,04,01,3.20
2015,07,07,04,02,3.20
2015,07,07,04,03,3.20
2015,07,07,04,04,1.60
2015,07,07,04,05,3.20
2015,07,07,04,06,3.20
2015,07,07,04,07,4.80
2015,07,07,05,02,1.60
2015,07,07,05,03,1.60
2015,07,07,05,04,1.60
2015,07,07,05,05,1.60
2015,07,07,05,06,1.60
2015,07,07,05,12,1.60
2015,07,07,05,18,1.60
2015,07,07,05,19,1.60
2015,07,07,05,20,1.60
2015,07,07,05,21,1.60
2015,07,07,05,22,1.60
2015,07,07,05,23,1.60
2015,07,07,05,24,1.60
2015,07,07,05,25,1.60
2015,07,07,05,26,1.60
2015,07,07,05,27,1.60
2015,07,07,05,28,1.60
2015,07,07,05,29,1.60
2015,07,07,05,30,1.60
2015,07,07,05,31,1.60
2015,07,07,05,32,1.60
2015,07,07,05,33,1.60
2015,07,07,05,34,3.20
2015,07,07,05,35,3.20
2015,07,07,05,36,3.20
2015,07,07,05,37,3.20
2015,07,07,05,38,1.60
2015,07,07,05,39,1.60
2015,07,07,05,40,1.60
2015,07,07,05,41,1.60
2015,07,07,05,42,3.20
2015,07,07,05,43,3.20
2015,07,07,05,44,3.20
2015,07,07,05,45,3.20
2015,07,07,05,46,1.60
2015,07,07,05,47,3.20
2015,07,07,05,48,3.20
2015,07,07,05,49,3.20
2015,07,07,05,50,3.20
2015,07,07,05,51,1.60
2015,07,07,05,52,1.60
2015,07,07,05,55,1.60
2015,07,07,05,56,1.60
2015,07,07,05,57,1.60
2015,07,07,05,58,1.60
2015,07,07,06,02,1.60
2015,07,07,06,03,1.60
2015,07,07,06,04,1.60
2015,07,07,06,05,1.60
2015,07,07,06,06,1.60
2015,07,07,06,10,1.60
2015,07,07,06,11,1.60
2015,07,07,06,40,4.80
2015,07,07,06,41,4.80
2015,07,07,06,42,1.60
2015,07,07,06,43,3.20
2015,07,07,06,44,4.80
2015,07,07,06,45,4.80
2015,07,07,06,46,4.80
2015,07,07,06,47,3.20
2015,07,07,06,48,4.80
2015,07,07,06,49,3.20
2015,07,07,06,50,3.20
2015,07,07,06,51,3.20
2015,07,07,06,52,3.20
2015,07,07,06,53,3.20
2015,07,07,06,54,3.20
2015,07,07,06,55,3.20
2015,07,07,06,56,1.60
2015,07,07,06,57,1.60
2015,07,07,06,58,3.20
2015,07,07,06,59,1.60
2015,07,07,07,00,1.60
2015,07,07,07,01,3.20
2015,07,07,07,02,3.20
2015,07,07,07,03,3.20
2015,07,07,07,04,3.20
2015,07,07,07,05,3.20
2015,07,07,07,06,1.60
2015,07,07,07,07,1.60
2015,07,07,07,08,1.60
2015,07,07,07,09,3.20
2015,07,07,07,10,3.20
2015,07,07,07,11,3.20
2015,07,07,07,12,3.20
2015,07,07,07,13,3.20
2015,07,07,07,14,3.20
2015,07,07,07,15,3.20
2015,07,07,07,16,1.60
2015,07,07,07,17,3.20
2015,07,07,07,18,3.20
2015,07,07,07,19,3.20
2015,07,07,07,20,3.20
2015,07,07,07,21,3.20
2015,07,07,07,22,4.80
2015,07,07,07,23,4.80
2015,07,07,07,24,3.20
2015,07,07,07,25,3.20
2015,07,07,07,26,3.20
2015,07,07,07,27,3.20
2015,07,07,07,28,4.80
2015,07,07,07,29,3.20
2015,07,07,07,30,3.20
2015,07,07,07,31,4.80
2015,07,07,07,32,3.20
2015,07,07,07,33,4.80
2015,07,07,07,34,4.80
2015,07,07,07,35,4.80
2015,07,07,07,36,4.80
2015,07,07,07,37,3.20
2015,07,07,07,38,4.80
2015,07,07,07,39,6.40
2015,07,07,07,40,3.20
2015,07,07,07,41,4.80
2015,07,07,07,42,4.80
2015,07,07,07,43,4.80
2015,07,07,07,44,1.60
2015,07,07,07,45,3.20
2015,07,07,07,46,6.40
2015,07,07,07,47,3.20
2015,07,07,07,48,3.20
2015,07,07,07,49,3.20
2015,07,07,07,50,3.20
2015,07,07,07,51,4.80
2015,07,07,07,52,3.20
2015,07,07,07,53,3.20
2015,07,07,07,54,3.20
2015,07,07,07,55,6.40
2015,07,07,07,56,6.40
2015,07,07,07,57,6.40
2015,07,07,07,58,4.80
2015,07,07,07,59,6.40
2015,07,07,08,00,6.40
2015,07,07,08,01,4.80
2015,07,07,08,02,4.80
2015,07,07,08,03,3.20
2015,07,07,08,04,4.80
2015,07,07,08,05,6.40
2015,07,07,08,06,6.40
2015,07,07,08,07,4.80
2015,07,07,08,08,4.80
2015,07,07,08,09,6.40
2015,07,07,08,10,6.40
2015,07,07,08,11,6.40
2015,07,07,08,12,3.20
2015,07,07,08,13,4.80
2015,07,07,08,14,4.80
2015,07,07,08,15,3.20
2015,07,07,08,16,4.80
2015,07,07,08,17,3.20
2015,07,07,08,18,4.80
2015,07,07,08,19,3.20
2015,07,07,08,20,4.80
2015,07,07,08,21,4.80
2015,07,07,08,22,4.80
2015,07,07,08,23,6.40
2015,07,07,08,24,4.80
2015,07,07,08,25,4.80
2015,07,07,08,26,3.20
2015,07,07,08,27,3.20
2015,07,07,08,28,4.80
2015,07,07,08,29,4.80
2015,07,07,08,30,3.20
2015,07,07,08,31,3.20
2015,07,07,08,32,4.80
2015,07,07,08,33,4.80
2015,07,07,08,34,6.40
2015,07,07,08,35,6.40
2015,07,07,08,36,3.20
2015,07,07,08,37,4.80
2015,07,07,08,38,6.40
2015,07,07,08,39,3.20
2015,07,07,08,40,3.20
2015,07,07,08,41,6.40
2015,07,07,08,42,4.80
2015,07,07,08,43,4.80
2015,07,07,08,44,4.80
2015,07,07,08,45,4.80
2015,07,07,08,46,4.80
2015,07,07,08,47,3.20
2015,07,07,08,48,4.80
2015,07,07,08,49,1.60
2015,07,07,09,00,4.80
2015,07,07,09,01,3.20
2015,07,07,09,02,6.40
2015,07,07,09,03,6.40
2015,07,07,09,04,8.10
2015,07,07,09,05,4.80
2015,07,07,09,06,4.80
2015,07,07,09,07,4.80
2015,07,07,09,08,4.80
2015,07,07,09,09,4.80
2015,07,07,09,10,3.20
2015,07,07,09,11,4.80
2015,07,07,09,12,6.40
2015,07,07,09,13,4.80
2015,07,07,09,14,4.80
2015,07,07,09,15,3.20
2015,07,07,09,16,3.20
2015,07,07,09,17,3.20
2015,07,07,09,18,3.20
2015,07,07,09,19,1.60
2015,07,07,09,20,3.20
2015,07,07,09,21,3.20
2015,07,07,09,22,4.80
2015,07,07,09,23,3.20
2015,07,07,09,24,4.80
2015,07,07,09,25,6.40
2015,07,07,09,26,4.80
2015,07,07,09,27,4.80
2015,07,07,09,28,4.80
2015,07,07,09,29,4.80
2015,07,07,09,30,3.20
2015,07,07,09,31,3.20
2015,07,07,09,32,3.20
2015,07,07,09,33,6.40
2015,07,07,09,34,4.80
2015,07,07,09,35,4.80
2015,07,07,09,36,4.80
2015,07,07,09,37,4.80
2015,07,07,09,38,4.80
2015,07,07,09,39,3.20
2015,07,07,09,40,3.20
2015,07,07,09,41,4.80
2015,07,07,09,42,3.20
2015,07,07,09,43,3.20
2015,07,07,09,44,3.20
2015,07,07,09,45,4.80
2015,07,07,09,46,4.80
2015,07,07,09,47,3.20
2015,07,07,09,48,3.20
2015,07,07,09,49,4.80
2015,07,07,09,50,6.40
2015,07,07,09,51,6.40
2015,07,07,09,52,4.80
2015,07,07,09,53,6.40
2015,07,07,09,54,4.80
2015,07,07,09,55,4.80
2015,07,07,09,56,4.80
2015,07,07,09,57,8.10
2015,07,07,09,58,4.80
2015,07,07,09,59,6.40
2015,07,07,10,00,6.40
2015,07,07,10,01,6.40
2015,07,07,10,02,6.40
2015,07,07,10,03,4.80
2015,07,07,10,04,4.80
2015,07,07,10,05,4.80
2015,07,07,10,06,4.80
2015,07,07,10,07,3.20
2015,07,07,10,08,4.80
2015,07,07,10,09,4.80
2015,07,07,10,10,4.80
2015,07,07,10,11,6.40
2015,07,07,10,12,6.40
2015,07,07,10,13,4.80
2015,07,07,10,14,6.40
2015,07,07,10,15,6.40
2015,07,07,10,16,6.40
2015,07,07,10,17,4.80
2015,07,07,10,18,6.40
2015,07,07,10,19,4.80
2015,07,07,10,20,6.40
2015,07,07,10,21,4.80
2015,07,07,10,22,6.40
2015,07,07,10,23,8.10
2015,07,07,10,24,4.80
2015,07,07,10,25,4.80
2015,07,07,10,26,4.80
2015,07,07,10,27,4.80
2015,07,07,10,28,4.80
2015,07,07,10,29,4.80
2015,07,07,10,30,6.40
2015,07,07,10,31,6.40
2015,07,07,10,32,6.40
2015,07,07,10,33,4.80
2015,07,07,10,34,4.80
2015,07,07,10,35,6.40
2015,07,07,10,36,4.80
2015,07,07,10,37,3.20
2015,07,07,10,38,6.40
2015,07,07,10,39,6.40
2015,07,07,10,40,4.80
2015,07,07,10,41,4.80
2015,07,07,10,42,6.40
2015,07,07,10,43,4.80
2015,07,07,10,44,3.20
2015,07,07,10,45,4.80
2015,07,07,10,46,4.80
2015,07,07,10,47,6.40
2015,07,07,10,48,4.80
2015,07,07,10,49,4.80
2015,07,07,10,50,6.40
2015,07,07,10,51,4.80
2015,07,07,10,52,6.40
2015,07,07,10,53,8.10
2015,07,07,10,54,6.40
2015,07,07,10,55,6.40
2015,07,07,10,56,4.80
2015,07,07,10,57,8.10
2015,07,07,10,58,3.20
2015,07,07,10,59,3.20
2015,07,07,11,00,8.10
2015,07,07,11,01,8.10
2015,07,07,11,02,6.40
2015,07,07,11,03,6.40
2015,07,07,11,04,6.40
2015,07,07,11,05,6.40
2015,07,07,11,06,4.80
2015,07,07,11,07,4.80
2015,07,07,11,08,4.80
2015,07,07,11,09,8.10
2015,07,07,11,10,4.80
2015,07,07,11,11,4.80
2015,07,07,11,12,6.40
2015,07,07,11,13,4.80
2015,07,07,11,14,3.20
2015,07,07,11,15,6.40
2015,07,07,11,16,8.10
2015,07,07,11,17,3.20
2015,07,07,11,18,4.80
2015,07,07,11,19,9.60
2015,07,07,11,20,8.10
2015,07,07,11,21,6.40
2015,07,07,11,22,6.40
2015,07,07,11,23,6.40
2015,07,07,11,24,6.40
2015,07,07,11,25,6.40
2015,07,07,11,26,6.40
2015,07,07,11,27,6.40
2015,07,07,11,28,8.10
2015,07,07,11,29,6.40
2015,07,07,11,30,6.40
2015,07,07,11,31,6.40
2015,07,07,11,32,8.10
2015,07,07,11,33,6.40
2015,07,07,11,34,6.40
2015,07,07,11,35,4.80
2015,07,07,11,36,6.40
2015,07,07,11,37,6.40
2015,07,07,11,38,6.40
2015,07,07,11,39,8.10
2015,07,07,11,40,4.80
2015,07,07,11,41,6.40
2015,07,07,11,42,6.40
2015,07,07,11,43,6.40
2015,07,07,11,44,6.40
2015,07,07,11,45,4.80
2015,07,07,11,46,4.80
2015,07,07,11,47,4.80
2015,07,07,11,48,4.80
2015,07,07,11,49,6.40
2015,07,07,11,50,6.40
2015,07,07,11,51,6.40
2015,07,07,11,52,4.80
2015,07,07,11,53,4.80
2015,07,07,11,54,4.80
2015,07,07,11,55,6.40
2015,07,07,11,56,4.80
2015,07,07,11,57,4.80
2015,07,07,11,58,3.20
2015,07,07,11,59,3.20
2015,07,07,12,00,6.40
2015,07,07,12,01,6.40
2015,07,07,12,02,3.20
2015,07,07,12,03,3.20
2015,07,07,12,04,4.80
2015,07,07,12,05,4.80
2015,07,07,12,06,4.80
2015,07,07,12,07,4.80
2015,07,07,12,08,6.40
2015,07,07,12,09,6.40
2015,07,07,12,10,6.40
2015,07,07,12,11,6.40
2015,07,07,12,12,6.40
2015,07,07,12,13,6.40
2015,07,07,12,14,4.80
2015,07,07,12,15,4.80
2015,07,07,12,16,6.40
2015,07,07,12,17,4.80
2015,07,07,12,18,4.80
2015,07,07,12,19,4.80
2015,07,07,12,20,3.20
2015,07,07,12,21,4.80
2015,07,07,12,22,4.80
2015,07,07,12,23,6.40
2015,07,07,12,24,4.80
2015,07,07,12,25,6.40
2015,07,07,12,26,6.40
2015,07,07,12,27,6.40
2015,07,07,12,28,4.80
2015,07,07,12,29,4.80
2015,07,07,12,30,6.40
2015,07,07,12,31,6.40
2015,07,07,12,32,4.80
2015,07,07,12,33,6.40
2015,07,07,12,34,6.40
2015,07,07,12,35,6.40
2015,07,07,12,36,6.40
2015,07,07,12,37,8.10
2015,07,07,12,38,6.40
2015,07,07,12,39,6.40
2015,07,07,12,40,4.80
2015,07,07,12,41,6.40
2015,07,07,12,42,6.40
2015,07,07,12,43,6.40
2015,07,07,12,44,4.80
2015,07,07,12,45,4.80
2015,07,07,12,46,3.20
2015,07,07,12,47,4.80
2015,07,07,12,48,6.40
2015,07,07,12,49,6.40
2015,07,07,12,50,6.40
2015,07,07,12,51,6.40
2015,07,07,12,52,4.80
2015,07,07,12,53,4.80
2015,07,07,12,54,8.10
2015,07,07,12,55,6.40
2015,07,07,12,56,6.40
2015,07,07,12,57,6.40
2015,07,07,12,58,4.80
2015,07,07,12,59,8.10
2015,07,07,13,00,8.10
2015,07,07,13,01,8.10
2015,07,07,13,02,8.10
2015,07,07,13,03,4.80
2015,07,07,13,04,4.80
2015,07,07,13,05,6.40
2015,07,07,13,06,6.40
2015,07,07,13,07,6.40
2015,07,07,13,08,6.40
2015,07,07,13,09,4.80
2015,07,07,13,10,8.10
2015,07,07,13,11,6.40
2015,07,07,13,12,4.80
2015,07,07,13,13,6.40
2015,07,07,13,14,4.80
2015,07,07,13,15,4.80
2015,07,07,13,16,4.80
2015,07,07,13,17,6.40
2015,07,07,13,18,8.10
2015,07,07,13,19,9.60
2015,07,07,13,20,4.80
2015,07,07,13,21,6.40
2015,07,07,13,22,6.40
2015,07,07,13,23,4.80
2015,07,07,13,24,4.80
2015,07,07,13,25,6.40
2015,07,07,13,26,4.80
2015,07,07,13,27,6.40
2015,07,07,13,28,4.80
2015,07,07,13,29,4.80
2015,07,07,13,30,6.40
2015,07,07,13,31,4.80
2015,07,07,13,32,6.40
2015,07,07,13,33,6.40
2015,07,07,13,34,6.40
2015,07,07,13,35,8.10
2015,07,07,13,36,8.10
2015,07,07,13,37,6.40
2015,07,07,13,38,3.20
2015,07,07,13,39,8.10
2015,07,07,13,40,4.80
2015,07,07,13,41,4.80
2015,07,07,13,42,3.20
2015,07,07,13,43,3.20
2015,07,07,13,44,6.40
2015,07,07,13,45,4.80
2015,07,07,13,46,3.20
2015,07,07,13,47,4.80
2015,07,07,13,48,4.80
2015,07,07,13,49,4.80
2015,07,07,13,50,6.40
2015,07,07,13,51,12.90
2015,07,07,13,52,11.30
2015,07,07,13,53,4.80
2015,07,07,13,54,8.10
2015,07,07,13,55,6.40
2015,07,07,13,56,6.40
2015,07,07,13,57,6.40
2015,07,07,13,58,6.40
2015,07,07,13,59,8.10
2015,07,07,14,00,6.40
2015,07,07,14,01,9.60
2015,07,07,14,02,8.10
2015,07,07,14,03,6.40
2015,07,07,14,04,8.10
2015,07,07,14,05,8.10
2015,07,07,14,06,8.10
2015,07,07,14,07,9.60
2015,07,07,14,08,8.10
2015,07,07,14,09,8.10
2015,07,07,14,10,6.40
2015,07,07,14,11,6.40
2015,07,07,14,12,4.80
2015,07,07,14,13,4.80
2015,07,07,14,14,6.40
2015,07,07,14,15,6.40
2015,07,07,14,16,9.60
2015,07,07,14,17,8.10
2015,07,07,14,18,9.60
2015,07,07,14,19,11.30
2015,07,07,14,20,9.60
2015,07,07,14,21,8.10
2015,07,07,14,22,6.40
2015,07,07,14,23,6.40
2015,07,07,14,24,9.60
2015,07,07,14,25,6.40
2015,07,07,14,26,6.40
2015,07,07,14,27,8.10
2015,07,07,14,28,8.10
2015,07,07,14,29,8.10
2015,07,07,14,30,9.60
2015,07,07,14,31,8.10
2015,07,07,14,32,8.10
2015,07,07,14,33,8.10
2015,07,07,14,34,9.60
2015,07,07,14,35,6.40
2015,07,07,14,36,6.40
2015,07,07,14,37,6.40
2015,07,07,14,38,8.10
2015,07,07,14,39,8.10
2015,07,07,14,40,8.10
2015,07,07,14,41,9.60
2015,07,07,14,42,6.40
2015,07,07,14,43,8.10
2015,07,07,14,44,11.30
2015,07,07,14,45,8.10
2015,07,07,14,46,14.50
2015,07,07,14,47,8.10
2015,07,07,14,48,6.40
2015,07,07,14,49,9.60
2015,07,07,14,50,4.80
2015,07,07,14,51,6.40
2015,07,07,14,52,6.40
2015,07,07,14,53,6.40
2015,07,07,14,54,6.40
2015,07,07,14,55,8.10
2015,07,07,14,56,8.10
2015,07,07,14,57,4.80
2015,07,07,14,58,4.80
2015,07,07,14,59,6.40
2015,07,07,15,00,8.10
2015,07,07,15,01,6.40
2015,07,07,15,02,9.60
2015,07,07,15,03,9.60
2015,07,07,15,04,8.10
2015,07,07,15,05,6.40
2015,07,07,15,06,6.40
2015,07,07,15,07,8.10
2015,07,07,15,08,4.80
2015,07,07,15,09,11.30
2015,07,07,15,10,4.80
2015,07,07,15,11,3.20
2015,07,07,15,12,6.40
2015,07,07,15,13,6.40
2015,07,07,15,14,4.80
2015,07,07,15,15,6.40
2015,07,07,15,16,6.40
2015,07,07,15,17,11.30
2015,07,07,15,18,11.30
2015,07,07,15,19,9.60
2015,07,07,15,20,9.60
2015,07,07,15,21,4.80
2015,07,07,15,22,9.60
2015,07,07,15,23,11.30
2015,07,07,15,24,9.60
2015,07,07,15,25,9.60
2015,07,07,15,26,8.10
2015,07,07,15,27,6.40
2015,07,07,15,28,8.10
2015,07,07,15,29,8.10
2015,07,07,15,30,6.40
2015,07,07,15,31,14.50
2015,07,07,15,32,8.10
2015,07,07,15,33,9.60
2015,07,07,15,34,9.60
2015,07,07,15,35,4.80
2015,07,07,15,36,8.10
2015,07,07,15,37,4.80
2015,07,07,15,38,9.60
2015,07,07,15,39,6.40
2015,07,07,15,40,6.40
2015,07,07,15,41,8.10
2015,07,07,15,42,8.10
2015,07,07,15,43,8.10
2015,07,07,15,44,11.30
2015,07,07,15,45,9.60
2015,07,07,15,46,6.40
2015,07,07,15,47,9.60
2015,07,07,15,48,4.80
2015,07,07,15,49,6.40
2015,07,07,15,50,6.40
2015,07,07,15,51,4.80
2015,07,07,15,52,8.10
2015,07,07,15,53,8.10
2015,07,07,15,54,6.40
2015,07,07,15,55,8.10
2015,07,07,15,56,4.80
2015,07,07,15,57,4.80
2015,07,07,15,58,3.20
2015,07,07,15,59,4.80
2015,07,07,16,00,4.80
2015,07,07,16,01,3.20
2015,07,07,16,02,6.40
2015,07,07,16,03,6.40
2015,07,07,16,04,4.80
2015,07,07,16,05,4.80
2015,07,07,16,06,3.20
2015,07,07,16,07,4.80
2015,07,07,16,08,4.80
2015,07,07,16,09,3.20
2015,07,07,16,10,4.80
2015,07,07,16,11,6.40
2015,07,07,16,12,6.40
2015,07,07,16,13,3.20
2015,07,07,16,14,3.20
2015,07,07,16,15,3.20
2015,07,07,16,16,3.20
2015,07,07,16,17,1.60
2015,07,07,16,18,6.40
2015,07,07,16,19,4.80
2015,07,07,16,20,4.80
2015,07,07,16,21,3.20
2015,07,07,16,22,3.20
2015,07,07,16,23,4.80
2015,07,07,16,24,4.80
2015,07,07,16,25,4.80
2015,07,07,16,26,3.20
2015,07,07,16,27,4.80
2015,07,07,16,28,4.80
2015,07,07,16,29,6.40
2015,07,07,16,30,4.80
2015,07,07,16,31,3.20
2015,07,07,16,32,4.80
2015,07,07,16,33,4.80
2015,07,07,16,34,6.40
2015,07,07,16,35,4.80
2015,07,07,16,36,3.20
2015,07,07,16,37,6.40
2015,07,07,16,38,3.20
2015,07,07,16,39,6.40
2015,07,07,16,40,6.40
2015,07,07,16,41,8.10
2015,07,07,16,42,8.10
2015,07,07,16,43,4.80
2015,07,07,16,44,9.60
2015,07,07,16,45,6.40
2015,07,07,16,46,3.20
2015,07,07,16,47,4.80
2015,07,07,16,48,4.80
2015,07,07,16,49,4.80
2015,07,07,16,50,3.20
2015,07,07,16,51,3.20
2015,07,07,16,52,3.20
2015,07,07,16,53,4.80
2015,07,07,16,54,4.80
2015,07,07,16,55,8.10
2015,07,07,16,56,6.40
2015,07,07,16,57,6.40
2015,07,07,16,58,6.40
2015,07,07,16,59,4.80
2015,07,07,17,00,6.40
2015,07,07,17,01,4.80
2015,07,07,17,02,4.80
2015,07,07,17,03,6.40
2015,07,07,17,04,6.40
2015,07,07,17,05,8.10
2015,07,07,17,06,4.80
2015,07,07,17,07,8.10
2015,07,07,17,08,6.40
2015,07,07,17,09,4.80
2015,07,07,17,10,3.20
2015,07,07,17,11,4.80
2015,07,07,17,12,3.20
2015,07,07,17,13,3.20
2015,07,07,17,14,4.80
2015,07,07,17,15,3.20
2015,07,07,17,16,4.80
2015,07,07,17,17,3.20
2015,07,07,17,18,4.80
2015,07,07,17,19,3.20
2015,07,07,17,20,1.60
2015,07,07,17,21,3.20
2015,07,07,17,22,3.20
2015,07,07,17,23,3.20
2015,07,07,17,24,4.80
2015,07,07,17,25,4.80
2015,07,07,17,26,6.40
2015,07,07,17,27,9.60
2015,07,07,17,28,6.40
2015,07,07,17,29,6.40
2015,07,07,17,30,4.80
2015,07,07,17,31,6.40
2015,07,07,17,32,6.40
2015,07,07,17,33,4.80
2015,07,07,17,34,4.80
2015,07,07,17,35,9.60
2015,07,07,17,36,6.40
2015,07,07,17,37,4.80
2015,07,07,17,38,6.40
2015,07,07,17,39,4.80
2015,07,07,17,40,4.80
2015,07,07,17,41,4.80
2015,07,07,17,42,4.80
2015,07,07,17,43,6.40
2015,07,07,17,44,4.80
2015,07,07,17,45,6.40
2015,07,07,17,46,4.80
2015,07,07,17,47,4.80
2015,07,07,17,48,4.80
2015,07,07,17,49,6.40
2015,07,07,17,50,4.80
2015,07,07,17,51,4.80
2015,07,07,17,52,4.80
2015,07,07,17,53,4.80
2015,07,07,17,54,6.40
2015,07,07,17,55,4.80
2015,07,07,17,56,4.80
2015,07,07,17,57,3.20
2015,07,07,17,58,3.20
2015,07,07,18,02,4.80
2015,07,07,18,03,4.80
2015,07,07,18,04,3.20
2015,07,07,18,05,4.80
2015,07,07,18,06,3.20
2015,07,07,18,07,1.60
2015,07,07,18,08,3.20
2015,07,07,18,09,3.20
2015,07,07,18,10,1.60
2015,07,07,18,11,1.60
2015,07,07,18,12,3.20
2015,07,07,18,13,4.80
2015,07,07,18,14,6.40
2015,07,07,18,15,3.20
2015,07,07,18,16,4.80
2015,07,07,18,17,4.80
2015,07,07,18,18,6.40
2015,07,07,18,19,6.40
2015,07,07,18,20,4.80
2015,07,07,18,21,4.80
2015,07,07,18,22,3.20
2015,07,07,18,23,3.20
2015,07,07,18,24,3.20
2015,07,07,18,25,3.20
2015,07,07,18,26,4.80
2015,07,07,18,27,3.20
2015,07,07,18,28,4.80
2015,07,07,18,29,4.80
2015,07,07,18,30,3.20
2015,07,07,18,31,3.20
2015,07,07,18,32,3.20
2015,07,07,18,33,4.80
2015,07,07,18,34,3.20
2015,07,07,18,35,3.20
2015,07,07,18,36,6.40
2015,07,07,18,37,6.40
2015,07,07,18,38,4.80
2015,07,07,18,39,6.40
2015,07,07,18,40,6.40
2015,07,07,18,41,3.20
2015,07,07,18,42,3.20
2015,07,07,18,43,6.40
2015,07,07,18,44,6.40
2015,07,07,18,45,9.60
2015,07,07,18,46,4.80
2015,07,07,18,47,4.80
2015,07,07,18,48,3.20
2015,07,07,18,49,3.20
2015,07,07,18,50,4.80
2015,07,07,18,51,4.80
2015,07,07,18,52,4.80
2015,07,07,18,53,4.80
2015,07,07,18,54,4.80
2015,07,07,18,55,3.20
2015,07,07,18,56,1.60
2015,07,07,18,57,3.20
2015,07,07,18,58,1.60
2015,07,07,18,59,1.60
2015,07,07,19,00,1.60
2015,07,07,19,01,3.20
2015,07,07,19,02,1.60
2015,07,07,19,03,3.20
2015,07,07,19,04,3.20
2015,07,07,19,05,6.40
2015,07,07,19,06,6.40
2015,07,07,19,07,6.40
2015,07,07,19,08,6.40
2015,07,07,19,09,4.80
2015,07,07,19,10,3.20
2015,07,07,19,11,3.20
2015,07,07,19,12,3.20
2015,07,07,19,13,3.20
2015,07,07,19,14,3.20
2015,07,07,19,15,4.80
2015,07,07,19,16,3.20
2015,07,07,19,17,4.80
2015,07,07,19,18,3.20
2015,07,07,19,19,1.60
2015,07,07,19,20,1.60
2015,07,07,19,21,1.60
2015,07,07,19,22,3.20
2015,07,07,19,23,3.20
2015,07,07,19,24,3.20
2015,07,07,19,25,3.20
2015,07,07,19,26,4.80
2015,07,07,19,27,4.80
2015,07,07,19,28,3.20
2015,07,07,19,29,3.20
2015,07,07,19,30,3.20
2015,07,07,19,31,3.20
2015,07,07,19,32,3.20
2015,07,07,19,33,1.60
2015,07,07,19,34,3.20
2015,07,07,19,35,1.60
2015,07,07,19,36,1.60
2015,07,07,19,37,3.20
2015,07,07,19,38,3.20
2015,07,07,19,39,1.60
2015,07,07,19,40,3.20
2015,07,07,19,41,3.20
2015,07,07,19,42,4.80
2015,07,07,19,43,3.20
2015,07,07,19,44,1.60
2015,07,07,19,45,3.20
2015,07,07,19,46,3.20
2015,07,07,19,47,3.20
2015,07,07,19,48,4.80
2015,07,07,19,49,4.80
2015,07,07,19,50,3.20
2015,07,07,19,51,4.80
2015,07,07,19,52,3.20
2015,07,07,19,53,3.20
2015,07,07,19,54,3.20
2015,07,07,19,55,3.20
2015,07,07,19,56,3.20
2015,07,07,19,57,3.20
2015,07,07,19,58,3.20
2015,07,07,19,59,4.80
2015,07,07,20,00,4.80
2015,07,07,20,01,4.80
2015,07,07,20,02,6.40
2015,07,07,20,03,4.80
2015,07,07,20,04,3.20
2015,07,07,20,05,3.20
2015,07,07,20,06,1.60
2015,07,07,20,07,1.60
2015,07,07,20,08,3.20
2015,07,07,20,09,1.60
2015,07,07,20,10,3.20
2015,07,07,20,11,3.20
2015,07,07,20,12,3.20
2015,07,07,20,13,3.20
2015,07,07,20,14,3.20
2015,07,07,20,15,3.20
2015,07,07,20,16,3.20
2015,07,07,20,17,4.80
2015,07,07,20,18,3.20
2015,07,07,20,19,1.60
2015,07,07,20,20,3.20
2015,07,07,20,21,3.20
2015,07,07,20,22,4.80
2015,07,07,20,23,3.20
2015,07,07,20,24,3.20
2015,07,07,20,25,1.60
2015,07,07,20,26,1.60
2015,07,07,20,27,1.60
2015,07,07,20,28,1.60
2015,07,07,20,29,1.60
2015,07,07,20,30,1.60
2015,07,07,20,31,1.60
2015,07,07,20,32,4.80
2015,07,07,20,33,4.80
2015,07,07,20,34,3.20